Regional Weather Roundup
Issued by NWS

Home | Current Version | Previous Version | Text Only | Print | Product List | Glossary Off
Versions: 1 2 3 4 5 6 7 8 9 10 11 12 13 14 15 16 17 18 19 20 21 22 23 24 25 26 27 28 29 30 31 32 33 34 35 36 37 38 39 40 41 42 43 44 45 46 47 48 49 50

000
ASUS45 KBOU 172307
RWRCO

WEATHER ROUNDUP FOR COLORADO
NATIONAL WEATHER SERVICE DENVER/BOULDER CO
400 PM MST WED DEC 17 2014

NOTE: "FAIR" INDICATES FEW OR NO CLOUDS BELOW 12000 FEET WITH NO
SIGNIFICANT WEATHER AND/OR OBSTRUCTIONS TO VISIBILITY.

COZ001>005-013-030-031-180000-
...NORTHWEST COLORADO...

CITY           SKY/WX    TMP DP  RH WIND       PRES   REMARKS
CRAIG          CLOUDY    29  27  92 SW5       29.97R WCI  24
HAYDEN         MOCLDY    28  23  80 W3        29.96R
MEEKER         CLOUDY    30  27  88 CALM      29.95R
MOUNT WERNER   NOT AVBL
STEAMBOAT SPGS CLOUDY    30  28  93 CALM      29.95R
WALDEN         CLOUDY    27  21  80 N5        29.93R WCI  21
$$

COZ006>008-011-180000-
...WEST CENTRAL VALLEYS...

CITY           SKY/WX    TMP DP  RH WIND       PRES   REMARKS
GRAND JUNCTION CLOUDY    37  35  92 W3        29.96R
MONTROSE       CLOUDY    39  31  72 N7        29.95R
EAGLE          CLOUDY    30  25  80 CALM      29.98R
RIFLE          CLOUDY    38  30  73 CALM      29.95R
DELTA          CLOUDY    43  35  72 CALM      29.95R
NUCLA          CLOUDY    37  32  81 NW3       29.98S
$$

COZ017>023-064>068-180000-
...SOUTHWEST COLORADO...

CITY           SKY/WX    TMP DP  RH WIND       PRES   REMARKS
DURANGO        FLURRIES  35  29  78 SW9       29.96R WCI  28
CORTEZ         CLOUDY    35  33  92 NW3       29.98R
PAGOSA SPRINGS CLOUDY    33  28  82 CALM      29.96R
TELLURIDE      SNOW      28  28 100 SW6       29.95R VSB 1/4 WCI  21
WOLF CREEK PAS SNOW      18  18 100 MISG      29.94S VSB 1/4
$$

COZ009-010-012-014-032>034-037-058>063-180000-
...CENTRAL COLORADO...

CITY           SKY/WX    TMP DP  RH WIND       PRES   REMARKS
ASPEN          LGT SNOW  31  27  85 N5        29.92R FOG     WCI  26
BUENA VISTA    MOCLDY    33  22  63 SE7       29.91R WCI  27
COPPER MTN     SNOW      23  18  80 W15       29.93R VSB 1/4 WCI  10
BERTHOUD PASS  HVY SNOW  14   9  79 MISG      29.94S VSB<1/4
COTTONWOOD PAS CLOUDY    32  23  69 CALM      29.92R
GUNNISON       MOCLDY    28  18  64 CALM      29.97R
KREMMLING      LGT SNOW  23  18  80 CALM      29.97R
LEADVILLE      CLOUDY    23  18  81 CALM      29.91R
MONARCH PASS   FOG       18  14  86 MISG      30.02S VSB 1/4
SALIDA         MOCLDY    38  24  56 SW6       29.98R
SUNLIGHT       SNOW      25  23  93 CALM      29.96R VSB 1/4
WILKERSON PASS LGT SNOW  21  19  93 CALM      29.94S
$$

COZ069>075-180000-
...SAN LUIS VALLEY/SANGRE DE CRISTO MOUNTAINS...

CITY           SKY/WX    TMP DP  RH WIND       PRES   REMARKS
ALAMOSA        CLOUDY    28  24  85 SW3       29.94S
LA VETA PASS   LGT SNOW  23  21  93 SW7       29.91S WCI  15
SAGUACHE       PTCLDY    30  25  80 CALM      29.94R
$$

COZ035-036-038>040-180000-
...NORTHERN COLORADO FRONT RANGE...

CITY           SKY/WX    TMP DP  RH WIND       PRES   REMARKS
DENVER INTL AP CLOUDY    36  28  73 NE8       29.91R
DMNS CITY PARK   N/A     40  24  54 N3        29.91S
AURORA         CLOUDY    38  26  63 NE6       29.91R
FRONT RANGE AP NOT AVBL
ERIE MUNI ARPT   N/A     39  25  56 N5        29.92R
BOULDER MUN AP CLOUDY    37  25  60 CALM      29.92R
CENTENNIAL     CLOUDY    39  26  59 N7        29.90R
BROOMFIELD     CLOUDY    39  27  60 MISG      29.92R
FORT COLLINS   CLOUDY    37  23  56 SE5       29.94R
LONGMONT       CLOUDY    41  25  52 CALM      29.95R
$$

COZ041-046-047-076>085-087-088-180000-
...PIKES PEAK/PALMER DIVIDE AND SOUTHERN FOOTHILLS...

CITY           SKY/WX    TMP DP  RH WIND       PRES   REMARKS
COLO. SPRINGS  CLOUDY    37  33  85 NW3       29.91S
A. F. ACADEMY  LGT RAIN  34  33  96 W2        29.91R
ELLICOTT       NOT AVBL
FALCON         CLOUDY    36  29  77 W6        29.92R
FORT CARSON    CLOUDY    37  33  84 N8        29.90S
LIMON          CLOUDY    33  25  72 CALM      29.91S
MONUMENT HILL  CLOUDY    34  30  86 CALM      29.90R
TRINIDAD       CLOUDY    36  27  69 E6        29.90R
$$

COZ042>045-048>051-090-091-180000-
...NORTHEAST COLORADO...

CITY           SKY/WX    TMP DP  RH WIND       PRES   REMARKS
GREELEY ARPT   CLOUDY    30  19  64 SE9       29.93R WCI  22
AKRON          CLOUDY    23  22  96 SE10      29.95R FOG     WCI  12
BURLINGTON     FOG       25  23  92 E6        29.98R VSB 1/2 WCI  18
WRAY           CLOUDY    24  24 100 CALM      30.02R FOG
STERLING       CLOUDY    27  27 100 S3        29.98R
HOLYOKE        NOT AVBL
FORT MORGAN    CLOUDY    18  15  87 NE5       29.96R WCI  11
$$

COZ086-089-092>099-180000-
...SOUTHEAST COLORADO...

CITY           SKY/WX    TMP DP  RH WIND       PRES   REMARKS
PUEBLO         CLOUDY    34  22  61 SE3       29.92R
LA JUNTA       CLOUDY    29  24  82 E7        29.96R WCI  22
LAMAR          CLOUDY    29  26  89 NE3       29.96R
SPRINGFIELD      N/A     32  25  75 N12       29.92R WCI  23
$$



USA.gov is the U.S. government's official web portal to all federal, state and local government web resources and services.